E24CR-1 Weather Reports


Display with metric or nautical units.
time (UTC)temp
F
wind
direction
speed
MPH
gust
MPH
rain 1hr
in
rain 24hr
in
rain mn
in
humidity
%
barometer
mb
20260510191425 79 0 0.0 0.0 0.00 0.00 0.00 81 953.0
20260510190400 79 0 0.0 0.0 0.00 0.00 0.00 79 953.0
20260510185335 79 0 0.0 0.0 0.00 0.00 0.00 80 953.0
20260510184311 79 0 0.0 0.0 0.00 0.00 0.00 81 953.0
20260510183245 78 0 0.0 0.0 0.00 0.00 0.00 82 953.0
20260510182221 79 0 0.0 0.0 0.00 0.00 0.00 80 953.0
20260510181156 78 0 0.0 0.0 0.00 0.00 0.00 83 954.0
20260510180131 76 0 0.0 0.0 0.00 0.00 0.00 89 954.0
20260510175106 75 0 0.0 0.0 0.00 0.00 0.00 92 954.0
20260510174041 77 0 0.0 0.0 0.00 0.00 0.00 85 954.0
20260510173016 76 0 0.0 0.0 0.00 0.00 0.00 90 954.0
20260510171951 76 0 0.0 0.0 0.00 0.00 0.00 93 954.0
20260510170926 77 0 0.0 0.0 0.00 0.00 0.00 82 954.0
20260510165901 78 0 0.0 0.0 0.00 0.00 0.00 81 954.0
20260510164837 77 0 0.0 0.0 0.00 0.00 0.00 84 954.0
20260510163812 76 0 0.0 0.0 0.00 0.00 0.00 85 954.0
20260510162748 76 0 0.0 0.0 0.00 0.00 0.00 91 954.0
20260510161722 75 0 0.0 0.0 0.00 0.00 0.00 94 955.0
20260510160656 77 0 0.0 0.0 0.00 0.00 0.00 89 955.0
20260510155632 75 0 0.0 0.0 0.00 0.00 0.00 97 955.0
20260510154606 75 0 0.0 0.0 0.00 0.00 0.00 95 954.0
20260510153542 77 0 0.0 0.0 0.00 0.00 0.00 84 955.0
20260510152516 74 0 0.0 0.0 0.00 0.00 0.00 93 954.0
20260510151525 73 0 0.0 0.0 0.00 0.00 0.00 99 955.0
20260510150500 73 0 0.0 0.0 0.00 0.00 0.00 99 954.0
20260510145435 73 0 0.0 0.0 0.00 0.00 0.00 99 954.0
20260510144410 72 0 0.0 0.0 0.00 0.00 0.00 99 954.0
20260510143345 72 0 0.0 0.0 0.00 0.00 0.00 99 954.0
20260510142321 72 0 0.0 0.0 0.00 0.00 0.00 99 954.0
20260510141255 72 0 0.0 0.0 0.00 0.00 0.00 99 954.0
20260510140227 72 0 0.0 0.0 0.00 0.00 0.00 99 954.0
20260510135202 72 0 0.0 0.0 0.00 0.00 0.00 99 954.0
20260510134137 72 0 0.0 0.0 0.00 0.00 0.00 99 954.0
20260510133112 73 0 0.0 0.0 0.00 0.00 0.00 99 954.0
20260510132048 75 0 0.0 0.0 0.00 0.00 0.00 91 954.0
20260510131022 76 0 0.0 0.0 0.00 0.00 0.00 87 954.0
20260510125956 75 0 0.0 0.0 0.00 0.00 0.00 90 954.0
20260510124931 73 0 0.0 0.0 0.00 0.00 0.00 99 954.0
20260510123907 73 0 0.0 0.0 0.00 0.00 0.00 99 954.0
20260510122842 72 0 0.0 0.0 0.00 0.00 0.00 99 954.0
20260510121813 72 0 0.0 0.0 0.00 0.00 0.00 99 953.0
20260510120747 75 0 0.0 0.0 0.00 0.00 0.00 85 952.0
20260510115721 79 0 0.0 0.0 0.00 0.00 0.00 80 952.0
20260510114656 80 0 0.0 0.0 0.00 0.00 0.00 74 951.0
20260510113631 80 0 0.0 0.0 0.00 0.00 0.00 73 951.0
20260510112605 80 0 0.0 0.0 0.00 0.00 0.00 73 951.0
20260510111540 81 0 0.0 0.0 0.00 0.00 0.00 74 951.0
20260510110515 81 0 0.0 0.0 0.00 0.00 0.00 73 951.0
20260510105450 81 0 0.0 0.0 0.00 0.00 0.00 71 951.0
20260510104425 81 0 0.0 0.0 0.00 0.00 0.00 73 951.0
20260510103401 81 0 0.0 0.0 0.00 0.00 0.00 75 950.0
20260510102335 81 0 0.0 0.0 0.00 0.00 0.00 73 950.0
20260510101310 81 0 0.0 0.0 0.00 0.00 0.00 74 950.0
20260510100246 81 0 0.0 0.0 0.00 0.00 0.00 76 950.0
20260510095221 81 0 0.0 0.0 0.00 0.00 0.00 74 950.0
20260510094156 82 0 0.0 0.0 0.00 0.00 0.00 73 950.0
20260510093130 82 0 0.0 0.0 0.00 0.00 0.00 70 950.0
20260510092105 83 0 0.0 0.0 0.00 0.00 0.00 68 950.0
20260510091040 83 0 0.0 0.0 0.00 0.00 0.00 69 950.0
20260510090015 82 0 0.0 0.0 0.00 0.00 0.00 67 950.0
20260510084949 82 0 0.0 0.0 0.00 0.00 0.00 64 950.0
20260510083925 84 0 0.0 0.0 0.00 0.00 0.00 62 950.0
20260510082859 82 0 0.0 0.0 0.00 0.00 0.00 70 950.0
20260510081834 83 0 0.0 0.0 0.00 0.00 0.00 64 950.0
20260510080809 87 0 0.0 0.0 0.00 0.00 0.00 61 950.0
20260510075745 90 0 0.0 0.0 0.00 0.00 0.00 52 949.0
20260510074720 94 0 0.0 0.0 0.00 0.00 0.00 46 949.0
20260510073655 95 0 0.0 0.0 0.00 0.00 0.00 45 949.0
20260510072629 95 0 0.0 0.0 0.00 0.00 0.00 47 950.0
20260510071605 94 0 0.0 0.0 0.00 0.00 0.00 50 950.0
20260510070539 93 0 0.0 0.0 0.00 0.00 0.00 48 950.0
20260510065514 94 0 0.0 0.0 0.00 0.00 0.00 49 950.0
20260510064448 93 0 0.0 0.0 0.00 0.00 0.00 50 950.0
20260510063423 93 0 0.0 0.0 0.00 0.00 0.00 49 950.0
20260510062359 92 0 0.0 0.0 0.00 0.00 0.00 51 951.0
20260510061333 92 0 0.0 0.0 0.00 0.00 0.00 47 951.0
20260510060309 91 0 0.0 0.0 0.00 0.00 0.00 49 952.0
20260510055245 92 0 0.0 0.0 0.00 0.00 0.00 51 952.0
20260510054220 93 0 0.0 0.0 0.00 0.00 0.00 55 952.0
20260510053154 91 0 0.0 0.0 0.00 0.00 0.00 56 952.0
20260510052129 95 0 0.0 0.0 0.00 0.00 0.00 55 952.0
20260510051104 94 0 0.0 0.0 0.00 0.00 0.00 55 952.0
20260510050040 91 0 0.0 0.0 0.00 0.00 0.00 63 953.0
20260510045014 93 0 0.0 0.0 0.00 0.00 0.00 58 953.0
20260510043946 92 0 0.0 0.0 0.00 0.00 0.00 60 953.0
20260510043526 90 0 0.0 0.0 0.00 0.00 0.00 68 953.0
20260510042501 89 0 0.0 0.0 0.00 0.00 0.00 63 953.0
20260510041436 88 0 0.0 0.0 0.00 0.00 0.00 63 953.0
20260510040409 89 0 0.0 0.0 0.00 0.00 0.00 63 953.0
20260510035344 90 0 0.0 0.0 0.00 0.00 0.00 59 953.0
20260510034319 91 0 0.0 0.0 0.00 0.00 0.00 62 953.0
20260510033254 88 0 0.0 0.0 0.00 0.00 0.00 60 954.0
20260510032225 87 0 0.0 0.0 0.00 0.00 0.00 68 954.0
20260510031200 87 0 0.0 0.0 0.00 0.00 0.00 70 954.0
20260510030135 86 0 0.0 0.0 0.00 0.00 0.00 70 954.0
20260510025109 85 0 0.0 0.0 0.00 0.00 0.00 76 954.0
20260510024043 84 0 0.0 0.0 0.00 0.00 0.00 79 954.0
20260510023019 83 0 0.0 0.0 0.00 0.00 0.00 83 955.0
20260510021953 83 0 0.0 0.0 0.00 0.00 0.00 79 954.0
20260510020928 82 0 0.0 0.0 0.00 0.00 0.00 85 954.0
20260510015903 82 0 0.0 0.0 0.00 0.00 0.00 80 954.0
20260510014838 82 0 0.0 0.0 0.00 0.00 0.00 84 954.0
20260510013811 82 0 0.0 0.0 0.00 0.00 0.00 81 954.0
20260510012746 81 0 0.0 0.0 0.00 0.00 0.00 88 954.0
20260510011721 81 0 0.0 0.0 0.00 0.00 0.00 93 954.0
20260510010656 80 0 0.0 0.0 0.00 0.00 0.00 90 954.0
20260510005631 80 0 0.0 0.0 0.00 0.00 0.00 91 954.0
20260510004605 78 0 0.0 0.0 0.00 0.00 0.00 96 954.0
20260510003540 78 0 0.0 0.0 0.00 0.00 0.00 94 954.0
20260510002516 78 0 0.0 0.0 0.00 0.00 0.00 96 953.0
20260510001451 79 0 0.0 0.0 0.00 0.00 0.00 92 953.0
20260510000422 79 0 0.0 0.0 0.00 0.00 0.00 83 953.0
20260509235356 79 0 0.0 0.0 0.00 0.00 0.00 88 953.0
20260509234330 79 0 0.0 0.0 0.00 0.00 0.00 89 953.0
20260509233305 78 0 0.0 0.0 0.00 0.00 0.00 94 953.0
20260509232240 79 0 0.0 0.0 0.00 0.00 0.00 84 953.0
20260509231215 78 0 0.0 0.0 0.00 0.00 0.00 86 953.0
20260509230150 79 0 0.0 0.0 0.00 0.00 0.00 89 952.0
20260509225126 79 0 0.0 0.0 0.00 0.00 0.00 90 952.0
20260509224101 80 0 0.0 0.0 0.00 0.00 0.00 87 952.0
20260509223036 79 0 0.0 0.0 0.00 0.00 0.00 90 952.0
20260509222002 79 0 0.0 0.0 0.00 0.00 0.00 91 952.0
20260509220937 79 0 0.0 0.0 0.00 0.00 0.00 92 952.0
20260509215912 79 0 0.0 0.0 0.00 0.00 0.00 91 952.0
20260509215542 79 0 0.0 0.0 0.00 0.00 0.00 90 952.0
20260509214518 79 0 0.0 0.0 0.00 0.00 0.00 93 952.0
20260509213452 78 0 0.0 0.0 0.00 0.00 0.00 95 952.0
20260509212426 79 0 0.0 0.0 0.00 0.00 0.00 91 952.0
20260509211401 79 0 0.0 0.0 0.00 0.00 0.00 91 952.0
20260509210336 79 0 0.0 0.0 0.00 0.00 0.00 93 952.0
20260509205310 79 0 0.0 0.0 0.00 0.00 0.00 93 952.0
20260509204245 79 0 0.0 0.0 0.00 0.00 0.00 96 952.0
20260509203219 79 0 0.0 0.0 0.00 0.00 0.00 94 952.0
20260509202155 81 0 0.0 0.0 0.00 0.00 0.00 85 952.0
20260509201129 81 0 0.0 0.0 0.00 0.00 0.00 83 952.0
20260509200103 82 0 0.0 0.0 0.00 0.00 0.00 82 952.0
20260509195038 81 0 0.0 0.0 0.00 0.00 0.00 86 952.0
20260509194012 79 0 0.0 0.0 0.00 0.00 0.00 94 952.0
20260509192948 81 0 0.0 0.0 0.00 0.00 0.00 88 952.0